This demonstration page uses our WeatherBlox Daily Observations layout. Learn more.

Left ArrowRight Arrow

Hourly Observations for March 7, 2020

Temp ( °F °C ) Dew Point ( °F °C ) Humidity (%) Winds ( mph kmh ) Pressure ( in mb ) Visibility ( mi km ) Precip ( " mm )
12:53 am 00:53 Clear 37 2.8 28 -2.2 70 70 ENE 7 11 29.76 1008 10 16 N/A
1:53 am 01:53 Clear 34 1.1 27 -2.8 76 76 ENE 3 6 29.76 1008 10 16 N/A
2:53 am 02:53 Clear 33 0.6 27 -2.8 78 78 E 5 7 29.75 1007 10 16 N/A
3:53 am 03:53 Clear 33 0.6 28 -2.2 82 82 E 6 9 29.74 1007 10 16 N/A
4:53 am 04:53 Clear 32 undefined 28 -2.2 85 85 NW 6 9 29.75 1007 10 16 N/A
5:53 am 05:53 Clear 32 undefined 28 -2.2 85 85 WNW 8 13 29.75 1008 10 16 N/A
6:36 am 06:36 Partly Cloudy with Mist and Fog 30 -1.1 28 -2.2 92 92 NW 8 13 29.83 1010 5 8 N/A
6:45 am 06:45 Mostly Cloudy with Mist and Fog 31 -0.6 29 -1.7 92 92 NW 12 19 29.84 1010 4 6 N/A
6:53 am 06:53 Mostly Cloudy with Mist and Fog 31 -0.6 29 -1.7 92 92 NW 10 17 29.78 1008 4 6 N/A
7:10 am 07:10 Cloudy with Mist and Fog 31 -0.6 29 -1.7 92 92 NW 10 17 29.84 1010 3 4 N/A
7:22 am 07:22 Cloudy with Mist and Fog 30 -1 28 -2 93 93 NW 14 22 29.84 1010 3 5 N/A
7:31 am 07:31 Cloudy with Mist and Fog 30 -1.1 28 -2.2 92 92 NW 8 13 29.83 1010 3 5 N/A
7:53 am 07:53 Cloudy with Mist and Fog 30 -1.1 28 -2.2 92 92 WNW 10 17 29.78 1009 3 5 N/A
8:01 am 08:01 Cloudy with Mist and Fog 30 -1.1 28 -2.2 92 92 WNW 10 17 29.84 1011 3 5 N/A
8:17 am 08:17 Cloudy with Mist and Fog 30 -1.1 28 -2.2 92 92 WNW 9 15 29.84 1011 4 6 N/A
8:53 am 08:53 Cloudy with Mist and Fog 31 -0.6 28 -2.2 89 89 NW 9 15 29.78 1008 5 8 N/A
9:53 am 09:53 Cloudy 32 undefined 27 -2.8 82 82 WNW 15 24 29.79 1009 9 14 N/A
10:17 am 10:17 Cloudy 32 undefined 27 -2.8 82 82 WNW 15 24 29.85 1011 9 14 N/A
10:53 am 10:53 Cloudy 32 undefined 27 -2.8 82 82 WNW 16 26 29.81 1010 10 16 N/A
11:53 am 11:53 Cloudy 31 -0.6 26 -3.3 82 82 NW 15 24 29.80 1009 9 14 N/A
12:19 pm 12:19 Cloudy 31 -0.6 26 -3.3 82 82 WNW 12 19 29.85 1011 10 16 N/A
12:53 pm 12:53 Cloudy 31 -0.6 26 -3.3 82 82 WNW 9 15 29.81 1010 10 16 N/A
1:21 pm 13:21 Cloudy 31 -0.6 26 -3.3 82 82 WNW 13 20 29.85 1011 10 16 N/A
1:53 pm 13:53 Cloudy 32 undefined 25 -3.9 75 75 WNW 14 22 29.80 1009 10 16 N/A
2:53 pm 14:53 Mostly Cloudy 34 1.1 26 -3.3 73 73 WNW 12 19 29.78 1009 10 16 N/A
3:15 pm 15:15 Partly Cloudy 35 1.7 26 -3.3 70 70 NW 12 19 29.80 1009 10 16 N/A
3:53 pm 15:53 Sunny 33 0.6 26 -3.3 75 75 NW 10 17 29.78 1008 10 16 N/A
4:19 pm 16:19 Mostly Cloudy 33 0.6 26 -3.3 75 75 NNW 13 20 29.80 1009 10 16 N/A
4:53 pm 16:53 Cloudy 32 undefined 26 -3.3 79 79 NW 13 20 29.78 1009 10 16 N/A
5:43 pm 17:43 Cloudy 30 -1.1 25 -3.9 82 82 NW 9 15 29.83 1010 10 16 N/A
5:53 pm 17:53 Cloudy 30 -1.1 25 -3.9 82 82 NW 7 11 29.80 1009 10 16 N/A
6:53 pm 18:53 Cloudy 28 -2.2 24 -4.4 85 85 WNW 13 20 29.83 1010 10 16 N/A
7:53 pm 19:53 Cloudy 26 -3.3 22 -5.6 84 84 WNW 15 24 29.88 1012 10 16 N/A
8:28 pm 20:28 Cloudy with Light Snow 25 -4 21 -6 86 86 NW 16 26 29.91 1013 2 3 N/A
8:35 pm 20:35 Cloudy with Light Snow 25 -3.9 22 -5.6 88 88 NW 13 20 29.92 1013 1 1 0.01 0.25
8:53 pm 20:53 Cloudy with Light Snow 25 -3.9 22 -5.6 88 88 NW 14 22 29.86 1011 1 1 0.02 0.51
8:59 pm 20:59 Cloudy with Light Snow 25 -3.9 22 -5.6 88 88 NW 13 20 29.91 1013 1 2 0.01 0.25
9:14 pm 21:14 Cloudy with Light Snow 25 -3.9 22 -5.6 88 88 NW 13 20 29.92 1013 1 2 0.02 0.51
9:22 pm 21:22 Cloudy with Light Snow 25 -3.9 23 -5 92 92 NW 10 17 29.93 1014 1 1 0.03 0.76
9:37 pm 21:37 Cloudy with Light Snow 25 -3.9 23 -5 92 92 NW 12 19 29.93 1014 1 1 0.04 1.02
9:47 pm 21:47 Cloudy with Light Snow 25 -4 21 -6 86 86 NW 10 17 29.93 1014 1 2 0.05 1.27
9:53 pm 21:53 Cloudy with Snow 24 -4.4 22 -5.6 91 91 NW 9 15 29.88 1012 1 1 0.06 1.52
10:53 pm 22:53 Mostly Cloudy with Light Snow 24 -4.4 22 -5.6 91 91 WNW 12 19 29.91 1013 1 1 0.09 2.29
11:23 pm 23:23 Mostly Cloudy with Light Snow 22 -5.6 20 -6.7 92 92 WNW 16 26 30.00 1016 1 1 0.02 0.51
11:46 pm 23:46 Mostly Cloudy with Snow 22 -5.6 19 -7.2 89 89 NW 16 26 30.00 1016 1 1 0.03 0.76
11:53 pm 23:53 Mostly Cloudy with Light Snow 21 -6.1 19 -7.2 92 92 NW 20 31 29.93 1014 1 2 0.03 0.76
11:59 pm 23:59 Cloudy with Light Snow 21 -6 18 -8 86 86 NW 17 28 30.00 1016 2 3 N/A

Powered by AerisWeather